Time,TemperatureF,DewpointF,PressureIn,WindDirection,WindDirectionDegrees,WindSpeedMPH,WindSpeedGustMPH,Humidity,HourlyPrecipIn,Conditions,Clouds,dailyrainin,SolarRadiationWatts/m^2,SoftwareType,DateUTC
2013-05-02 00:02:00,59.0,54.0,-100.00,NNE,14,3.0,9.0,84,0.00,,,0.00,0.000000,,2013-05-02 04:02:00,
2013-05-02 00:23:00,59.0,54.0,-100.00,NNE,14,3.0,9.0,84,0.00,,,0.00,0.000000,,2013-05-02 04:23:00,
2013-05-02 00:33:00,59.0,54.0,-100.00,NNE,14,3.0,9.0,84,0.00,,,0.00,0.000000,,2013-05-02 04:33:00,
2013-05-02 00:43:00,59.0,54.0,-100.00,NNE,14,3.0,9.0,84,0.00,,,0.00,0.000000,,2013-05-02 04:43:00,
2013-05-02 00:52:00,59.0,54.0,-100.00,NNE,14,3.0,9.0,84,0.00,,,0.00,0.000000,,2013-05-02 04:52:00,
2013-05-02 01:32:00,59.0,54.0,-100.00,ENE,62,3.0,9.0,84,0.00,,,0.00,0.000000,,2013-05-02 05:32:00,
2013-05-02 01:42:00,59.0,54.0,-100.00,ENE,62,3.0,9.0,84,0.00,,,0.00,0.000000,,2013-05-02 05:42:00,
2013-05-02 01:52:00,59.0,54.0,-100.00,ENE,62,3.0,9.0,84,0.00,,,0.00,0.000000,,2013-05-02 05:52:00,
2013-05-02 02:01:00,59.0,54.0,-100.00,ENE,62,3.0,9.0,84,0.00,,,0.00,0.000000,,2013-05-02 06:01:00,
2013-05-02 02:02:00,58.0,54.0,-100.00,North,3,3.0,7.0,85,0.00,,,0.00,0.000000,,2013-05-02 06:02:00,
2013-05-02 02:32:00,58.0,54.0,-100.00,North,3,3.0,7.0,85,0.00,,,0.00,0.000000,,2013-05-02 06:32:00,
2013-05-02 02:42:00,58.0,54.0,-100.00,North,3,3.0,7.0,85,0.00,,,0.00,0.000000,,2013-05-02 06:42:00,
2013-05-02 02:52:00,58.0,54.0,-100.00,North,3,3.0,7.0,85,0.00,,,0.00,0.000000,,2013-05-02 06:52:00,
2013-05-02 03:02:00,58.0,54.0,-100.00,NE,42,3.0,8.0,85,0.00,,,0.00,0.000000,,2013-05-02 07:02:00,
2013-05-02 03:22:00,58.0,54.0,-100.00,NE,42,3.0,8.0,85,0.00,,,0.00,0.000000,,2013-05-02 07:22:00,
2013-05-02 03:32:00,58.0,54.0,-100.00,NE,42,3.0,8.0,85,0.00,,,0.00,0.000000,,2013-05-02 07:32:00,
2013-05-02 03:42:00,58.0,54.0,-100.00,NE,42,3.0,8.0,85,0.00,,,0.00,0.000000,,2013-05-02 07:42:00,
2013-05-02 03:52:00,58.0,54.0,-100.00,NE,42,3.0,8.0,85,0.00,,,0.00,0.000000,,2013-05-02 07:52:00,
2013-05-02 04:02:00,58.0,53.0,-100.00,NE,41,2.0,9.0,83,0.00,,,0.00,0.000000,,2013-05-02 08:02:00,
2013-05-02 04:32:00,58.0,53.0,-100.00,NE,41,2.0,9.0,83,0.00,,,0.00,0.000000,,2013-05-02 08:32:00,
2013-05-02 04:42:00,58.0,53.0,-100.00,NE,41,2.0,9.0,83,0.00,,,0.00,0.000000,,2013-05-02 08:42:00,
2013-05-02 04:52:00,58.0,53.0,-100.00,NE,41,2.0,9.0,83,0.00,,,0.00,0.000000,,2013-05-02 08:52:00,
2013-05-02 05:02:00,58.0,53.0,-100.00,NNE,17,3.0,10.0,84,0.00,,,0.00,0.000000,,2013-05-02 09:02:00,
2013-05-02 05:22:00,58.0,53.0,-100.00,NNE,17,3.0,10.0,84,0.00,,,0.00,0.000000,,2013-05-02 09:22:00,
2013-05-02 05:33:00,58.0,53.0,-100.00,NNE,17,3.0,10.0,84,0.00,,,0.00,0.000000,,2013-05-02 09:33:00,
2013-05-02 05:43:00,58.0,53.0,-100.00,NNE,17,3.0,10.0,84,0.00,,,0.00,0.000000,,2013-05-02 09:43:00,
2013-05-02 05:52:00,58.0,53.0,-100.00,NNE,17,3.0,10.0,84,0.00,,,0.00,0.000000,,2013-05-02 09:52:00,
2013-05-02 06:02:00,59.0,55.0,-100.00,North,10,4.0,11.0,86,0.00,,,0.00,0.000000,,2013-05-02 10:02:00,
2013-05-02 06:23:00,59.0,55.0,-100.00,North,10,4.0,11.0,86,0.00,,,0.00,0.000000,,2013-05-02 10:23:00,
2013-05-02 06:33:00,59.0,55.0,-100.00,North,10,4.0,11.0,86,0.00,,,0.00,0.000000,,2013-05-02 10:33:00,
2013-05-02 06:42:00,59.0,55.0,-100.00,North,10,4.0,11.0,86,0.00,,,0.00,0.000000,,2013-05-02 10:42:00,
2013-05-02 06:53:00,59.0,55.0,-100.00,North,10,4.0,11.0,86,0.00,,,0.00,0.000000,,2013-05-02 10:53:00,
2013-05-02 07:32:00,58.0,54.0,-100.00,NE,39,3.0,9.0,88,0.00,,,0.00,0.000000,,2013-05-02 11:32:00,
2013-05-02 07:42:00,58.0,54.0,-100.00,NE,39,3.0,9.0,88,0.00,,,0.00,0.000000,,2013-05-02 11:42:00,
2013-05-02 07:52:00,58.0,54.0,-100.00,NE,39,3.0,9.0,88,0.00,,,0.00,0.000000,,2013-05-02 11:52:00,
2013-05-02 08:01:00,58.0,54.0,-100.00,NE,39,3.0,9.0,88,0.00,,,0.00,0.000000,,2013-05-02 12:01:00,
2013-05-02 08:22:00,58.0,55.0,-100.00,NNE,22,3.0,9.0,89,0.00,,,0.00,10.000000,,2013-05-02 12:22:00,
2013-05-02 08:32:00,58.0,55.0,-100.00,NNE,22,3.0,9.0,89,0.00,,,0.00,10.000000,,2013-05-02 12:32:00,
2013-05-02 08:42:00,58.0,55.0,-100.00,NNE,22,3.0,9.0,89,0.00,,,0.00,10.000000,,2013-05-02 12:42:00,
2013-05-02 08:52:00,58.0,55.0,-100.00,NNE,22,3.0,9.0,89,0.00,,,0.00,10.000000,,2013-05-02 12:52:00,
2013-05-02 09:01:00,58.0,55.0,-100.00,NNE,22,3.0,9.0,89,0.00,,,0.00,10.000000,,2013-05-02 13:01:00,
2013-05-02 09:02:00,59.0,56.0,-100.00,ENE,60,3.0,9.0,89,0.00,,,0.00,39.000000,,2013-05-02 13:02:00,
2013-05-02 09:32:00,59.0,56.0,-100.00,ENE,60,3.0,9.0,89,0.00,,,0.00,39.000000,,2013-05-02 13:32:00,
2013-05-02 09:42:00,59.0,56.0,-100.00,ENE,60,3.0,9.0,89,0.00,,,0.00,39.000000,,2013-05-02 13:42:00,
2013-05-02 09:52:00,59.0,56.0,-100.00,ENE,60,3.0,9.0,89,0.00,,,0.00,39.000000,,2013-05-02 13:52:00,
2013-05-02 10:02:00,59.0,56.0,-100.00,NNE,21,3.0,9.0,89,0.00,,,0.00,75.000000,,2013-05-02 14:02:00,
2013-05-02 10:32:00,59.0,56.0,-100.00,NNE,21,3.0,9.0,89,0.00,,,0.00,75.000000,,2013-05-02 14:32:00,
2013-05-02 10:43:00,59.0,56.0,-100.00,NNE,21,3.0,9.0,89,0.00,,,0.00,75.000000,,2013-05-02 14:43:00,
2013-05-02 10:52:00,59.0,56.0,-100.00,NNE,21,3.0,9.0,89,0.00,,,0.00,75.000000,,2013-05-02 14:52:00,
2013-05-02 11:02:00,61.0,56.0,-100.00,NE,53,4.0,8.0,85,0.00,,,0.00,135.000000,,2013-05-02 15:02:00,
2013-05-02 11:33:00,61.0,56.0,-100.00,NE,53,4.0,8.0,85,0.00,,,0.00,135.000000,,2013-05-02 15:33:00,
2013-05-02 11:43:00,61.0,56.0,-100.00,NE,53,4.0,8.0,85,0.00,,,0.00,135.000000,,2013-05-02 15:43:00,
2013-05-02 12:02:00,62.0,57.0,-100.00,NE,40,3.0,10.0,84,0.00,,,0.00,179.000000,,2013-05-02 16:02:00,
2013-05-02 12:32:00,62.0,57.0,-100.00,NE,40,3.0,10.0,84,0.00,,,0.00,179.000000,,2013-05-02 16:32:00,
2013-05-02 12:43:00,62.0,57.0,-100.00,NE,40,3.0,10.0,84,0.00,,,0.00,179.000000,,2013-05-02 16:43:00,
2013-05-02 12:52:00,62.0,57.0,-100.00,NE,40,3.0,10.0,84,0.00,,,0.00,179.000000,,2013-05-02 16:52:00,
2013-05-02 13:32:00,62.0,57.0,-100.00,NE,36,3.0,9.0,84,0.00,,,0.00,209.000000,,2013-05-02 17:32:00,
2013-05-02 13:42:00,62.0,57.0,-100.00,NE,36,3.0,9.0,84,0.00,,,0.00,209.000000,,2013-05-02 17:42:00,
2013-05-02 13:52:00,62.0,57.0,-100.00,NE,36,3.0,9.0,84,0.00,,,0.00,209.000000,,2013-05-02 17:52:00,
2013-05-02 14:01:00,62.0,57.0,-100.00,NE,36,3.0,9.0,84,0.00,,,0.00,209.000000,,2013-05-02 18:01:00,
2013-05-02 14:32:00,63.0,57.0,-100.00,East,96,3.0,12.0,81,0.00,,,0.00,187.000000,,2013-05-02 18:32:00,
2013-05-02 14:42:00,63.0,57.0,-100.00,East,96,3.0,12.0,81,0.00,,,0.00,187.000000,,2013-05-02 18:42:00,
2013-05-02 14:52:00,63.0,57.0,-100.00,East,96,3.0,12.0,81,0.00,,,0.00,187.000000,,2013-05-02 18:52:00,
2013-05-02 15:01:00,63.0,57.0,-100.00,East,96,3.0,12.0,81,0.00,,,0.00,187.000000,,2013-05-02 19:01:00,
2013-05-02 15:02:00,63.0,57.0,-100.00,NE,54,3.0,9.0,82,0.00,,,0.00,140.000000,,2013-05-02 19:02:00,
2013-05-02 15:22:00,63.0,57.0,-100.00,NE,54,3.0,9.0,82,0.00,,,0.00,140.000000,,2013-05-02 19:22:00,
2013-05-02 15:32:00,63.0,57.0,-100.00,NE,54,3.0,9.0,82,0.00,,,0.00,140.000000,,2013-05-02 19:32:00,
2013-05-02 15:42:00,63.0,57.0,-100.00,NE,54,3.0,9.0,82,0.00,,,0.00,140.000000,,2013-05-02 19:42:00,
2013-05-02 15:52:00,63.0,57.0,-100.00,NE,54,3.0,9.0,82,0.00,,,0.00,140.000000,,2013-05-02 19:52:00,
2013-05-02 16:32:00,65.0,58.0,-100.00,ESE,111,4.0,10.0,79,0.00,,,0.00,297.000000,,2013-05-02 20:32:00,
2013-05-02 16:42:00,65.0,58.0,-100.00,ESE,111,4.0,10.0,79,0.00,,,0.00,297.000000,,2013-05-02 20:42:00,
2013-05-02 16:52:00,65.0,58.0,-100.00,ESE,111,4.0,10.0,79,0.00,,,0.00,297.000000,,2013-05-02 20:52:00,
2013-05-02 17:01:00,65.0,58.0,-100.00,ESE,111,4.0,10.0,79,0.00,,,0.00,297.000000,,2013-05-02 21:01:00,
2013-05-02 17:02:00,62.0,57.0,-100.00,ENE,57,2.0,13.0,84,0.00,,,0.00,146.000000,,2013-05-02 21:02:00,
2013-05-02 17:21:00,62.0,57.0,-100.00,ENE,57,2.0,13.0,84,0.00,,,0.00,146.000000,,2013-05-02 21:21:00,
2013-05-02 17:33:00,62.0,57.0,-100.00,ENE,57,2.0,13.0,84,0.00,,,0.00,146.000000,,2013-05-02 21:33:00,
2013-05-02 17:42:00,62.0,57.0,-100.00,ENE,57,2.0,13.0,84,0.00,,,0.00,146.000000,,2013-05-02 21:42:00,
2013-05-02 17:53:00,62.0,57.0,-100.00,ENE,57,2.0,13.0,84,0.00,,,0.00,146.000000,,2013-05-02 21:53:00,
2013-05-02 18:02:00,64.0,56.0,-100.00,North,10,3.0,12.0,74,0.00,,,0.00,159.000000,,2013-05-02 22:02:00,
2013-05-02 18:33:00,64.0,56.0,-100.00,North,10,3.0,12.0,74,0.00,,,0.00,159.000000,,2013-05-02 22:33:00,
2013-05-02 18:42:00,64.0,56.0,-100.00,North,10,3.0,12.0,74,0.00,,,0.00,159.000000,,2013-05-02 22:42:00,
2013-05-02 18:53:00,64.0,56.0,-100.00,North,10,3.0,12.0,74,0.00,,,0.00,159.000000,,2013-05-02 22:53:00,
2013-05-02 19:22:00,64.0,56.0,-100.00,ENE,67,4.0,10.0,75,0.00,,,0.00,155.000000,,2013-05-02 23:22:00,
2013-05-02 19:32:00,64.0,56.0,-100.00,ENE,67,4.0,10.0,75,0.00,,,0.00,155.000000,,2013-05-02 23:32:00,
2013-05-02 19:42:00,64.0,56.0,-100.00,ENE,67,4.0,10.0,75,0.00,,,0.00,155.000000,,2013-05-02 23:42:00,
2013-05-02 19:52:00,64.0,56.0,-100.00,ENE,67,4.0,10.0,75,0.00,,,0.00,155.000000,,2013-05-02 23:52:00,
2013-05-02 20:01:00,64.0,56.0,-100.00,ENE,67,4.0,10.0,75,0.00,,,0.00,155.000000,,2013-05-03 00:01:00,
2013-05-02 20:22:00,62.0,56.0,-100.00,South,171,3.0,11.0,81,0.00,,,0.00,29.000000,,2013-05-03 00:22:00,
2013-05-02 20:32:00,62.0,56.0,-100.00,South,171,3.0,11.0,81,0.00,,,0.00,29.000000,,2013-05-03 00:32:00,
2013-05-02 20:42:00,62.0,56.0,-100.00,South,171,3.0,11.0,81,0.00,,,0.00,29.000000,,2013-05-03 00:42:00,
2013-05-02 20:52:00,62.0,56.0,-100.00,South,171,3.0,11.0,81,0.00,,,0.00,29.000000,,2013-05-03 00:52:00,
2013-05-02 21:01:00,62.0,56.0,-100.00,South,171,3.0,11.0,81,0.00,,,0.00,29.000000,,2013-05-03 01:01:00,
2013-05-02 21:21:00,60.0,56.0,-100.00,ENE,58,3.0,12.0,88,0.00,,,0.00,1.000000,,2013-05-03 01:21:00,
2013-05-02 21:32:00,60.0,56.0,-100.00,ENE,58,3.0,12.0,88,0.00,,,0.00,1.000000,,2013-05-03 01:32:00,
2013-05-02 21:42:00,60.0,56.0,-100.00,ENE,58,3.0,12.0,88,0.00,,,0.00,1.000000,,2013-05-03 01:42:00,
2013-05-02 21:52:00,60.0,56.0,-100.00,ENE,58,3.0,12.0,88,0.00,,,0.00,1.000000,,2013-05-03 01:52:00,
2013-05-02 22:01:00,60.0,56.0,-100.00,ENE,58,3.0,12.0,88,0.00,,,0.00,1.000000,,2013-05-03 02:01:00,
2013-05-02 22:22:00,59.0,55.0,-100.00,North,11,3.0,8.0,88,0.00,,,0.00,0.000000,,2013-05-03 02:22:00,
2013-05-02 22:32:00,59.0,55.0,-100.00,North,11,3.0,8.0,88,0.00,,,0.00,0.000000,,2013-05-03 02:32:00,
2013-05-02 22:42:00,59.0,55.0,-100.00,North,11,3.0,8.0,88,0.00,,,0.00,0.000000,,2013-05-03 02:42:00,
2013-05-02 22:52:00,59.0,55.0,-100.00,North,11,3.0,8.0,88,0.00,,,0.00,0.000000,,2013-05-03 02:52:00,
2013-05-02 23:01:00,59.0,55.0,-100.00,North,11,3.0,8.0,88,0.00,,,0.00,0.000000,,2013-05-03 03:01:00,
2013-05-02 23:02:00,59.0,55.0,-100.00,NE,38,3.0,10.0,86,0.00,,,0.00,0.000000,,2013-05-03 03:02:00,
2013-05-02 23:21:00,59.0,55.0,-100.00,NE,38,3.0,10.0,86,0.00,,,0.00,0.000000,,2013-05-03 03:21:00,
2013-05-02 23:33:00,59.0,55.0,-100.00,NE,38,3.0,10.0,86,0.00,,,0.00,0.000000,,2013-05-03 03:33:00,
2013-05-02 23:43:00,59.0,55.0,-100.00,NE,38,3.0,10.0,86,0.00,,,0.00,0.000000,,2013-05-03 03:43:00,
2013-05-02 23:53:00,59.0,55.0,-100.00,NE,38,3.0,10.0,86,0.00,,,0.00,0.000000,,2013-05-03 03:53:00,